User: anonymous   Login
Location: Unspecified
(0.0000°N, 0.0000°E)
Time: 08:36:16
(UTC+02:00)
Language:

AO-40 - Orbit

View from above orbital plane
View from above orbital plane
View from above satellite
View from above satellite

Ground track
Ground track

The orbit data is extracted from the following two-line orbital elements,

1 26609U 00072B   17087.46328663 -.00000214 +00000-0 +00000-0 0  9991
2 26609 006.2947 237.8194 7948199 097.5490 348.4434 01.25588114075207
Epoch (UTC): 28 March 2017 11:07:07
Eccentricity: 0.7948199
inclination: 6.2947°
perigee height: 1067 km
apogee height: 58752 km
right ascension of ascending node: 237.8194°
argument of perigee: 97.5490°
revolutions per day: 1.25588114
mean anomaly at epoch: 348.4434°
orbit number at epoch: 7520

The dashed part of the orbit path shows where the satellite is in the earth's shadow,  

DLR